Year,Month,Day,Hour,Minute,Value (Times are PST for windspeed in km/hr)
2010,11,15,00,00,7.50
2010,11,15,00,01,5.20
2010,11,15,00,02,8.60
2010,11,15,00,03,8.10
2010,11,15,00,04,7.70
2010,11,15,00,05,7.40
2010,11,15,00,06,7.70
2010,11,15,00,07,7.10
2010,11,15,00,08,9.90
2010,11,15,00,09,10.00
2010,11,15,00,10,8.20
2010,11,15,00,11,8.10
2010,11,15,00,12,11.30
2010,11,15,00,13,7.80
2010,11,15,00,14,8.40
2010,11,15,00,15,11.00
2010,11,15,00,16,8.00
2010,11,15,00,17,9.50
2010,11,15,00,18,9.20
2010,11,15,00,19,5.60
2010,11,15,00,20,6.90
2010,11,15,00,21,8.40
2010,11,15,00,22,6.90
2010,11,15,00,23,8.40
2010,11,15,00,24,5.60
2010,11,15,00,25,7.60
2010,11,15,00,26,6.30
2010,11,15,00,27,5.40
2010,11,15,00,28,4.50
2010,11,15,00,29,5.40
2010,11,15,00,30,4.60
2010,11,15,00,31,4.70
2010,11,15,00,32,5.30
2010,11,15,00,33,8.30
2010,11,15,00,34,8.20
2010,11,15,00,35,8.60
2010,11,15,00,36,8.00
2010,11,15,00,37,8.90
2010,11,15,00,38,7.60
2010,11,15,00,39,6.90
2010,11,15,00,40,7.30
2010,11,15,00,41,10.70
2010,11,15,00,42,11.80
2010,11,15,00,43,9.40
2010,11,15,00,44,7.60
2010,11,15,00,45,6.80
2010,11,15,00,46,7.30
2010,11,15,00,47,7.90
2010,11,15,00,48,7.70
2010,11,15,00,49,7.20
2010,11,15,00,50,6.10
2010,11,15,00,51,2.60
2010,11,15,00,52,6.50
2010,11,15,00,53,4.60
2010,11,15,00,54,1.50
2010,11,15,00,55,4.20
2010,11,15,00,56,5.60
2010,11,15,00,57,3.00
2010,11,15,00,58,3.20
2010,11,15,00,59,6.80
2010,11,15,01,00,5.90
2010,11,15,01,01,3.50
2010,11,15,01,02,6.60
2010,11,15,01,03,8.20
2010,11,15,01,04,6.80
2010,11,15,01,05,7.70
2010,11,15,01,06,7.70
2010,11,15,01,07,8.70
2010,11,15,01,08,6.30
2010,11,15,01,09,10.30
2010,11,15,01,10,9.50
2010,11,15,01,11,7.10
2010,11,15,01,12,7.60
2010,11,15,01,13,8.90
2010,11,15,01,14,6.40
2010,11,15,01,15,11.30
2010,11,15,01,16,8.80
2010,11,15,01,17,7.10
2010,11,15,01,18,4.30
2010,11,15,01,19,6.70
2010,11,15,01,20,8.10
2010,11,15,01,21,7.30
2010,11,15,01,22,6.60
2010,11,15,01,23,7.10
2010,11,15,01,24,7.60
2010,11,15,01,25,4.50
2010,11,15,01,26,8.50
2010,11,15,01,27,7.80
2010,11,15,01,28,7.70
2010,11,15,01,29,5.40
2010,11,15,01,30,4.60
2010,11,15,01,31,7.80
2010,11,15,01,32,7.40
2010,11,15,01,33,5.40
2010,11,15,01,34,7.40
2010,11,15,01,35,8.80
2010,11,15,01,36,13.50
2010,11,15,01,37,9.30
2010,11,15,01,38,6.50
2010,11,15,01,39,5.60
2010,11,15,01,40,6.00
2010,11,15,01,41,9.10
2010,11,15,01,42,10.10
2010,11,15,01,43,5.40
2010,11,15,01,44,6.90
2010,11,15,01,45,5.10
2010,11,15,01,46,5.40
2010,11,15,01,47,6.40
2010,11,15,01,48,6.80
2010,11,15,01,49,8.30
2010,11,15,01,50,7.10
2010,11,15,01,51,7.30
2010,11,15,01,52,7.00
2010,11,15,01,53,7.80
2010,11,15,01,54,7.70
2010,11,15,01,55,10.80
2010,11,15,01,56,7.10
2010,11,15,01,57,9.30
2010,11,15,01,58,8.50
2010,11,15,01,59,11.50
2010,11,15,02,00,9.70
2010,11,15,02,01,7.50
2010,11,15,02,02,6.60
2010,11,15,02,03,4.60
2010,11,15,02,04,6.30
2010,11,15,02,05,6.80
2010,11,15,02,06,5.60
2010,11,15,02,07,8.30
2010,11,15,02,08,10.30
2010,11,15,02,09,10.20
2010,11,15,02,10,11.60
2010,11,15,02,11,7.90
2010,11,15,02,12,6.20
2010,11,15,02,13,11.60
2010,11,15,02,14,16.10
2010,11,15,02,15,10.20
2010,11,15,02,16,7.80
2010,11,15,02,17,6.20
2010,11,15,02,18,6.10
2010,11,15,02,19,7.70
2010,11,15,02,20,6.00
2010,11,15,02,21,8.20
2010,11,15,02,22,9.80
2010,11,15,02,23,10.70
2010,11,15,02,24,9.90
2010,11,15,02,25,10.40
2010,11,15,02,26,8.80
2010,11,15,02,27,7.90
2010,11,15,02,28,12.30
2010,11,15,02,29,10.50
2010,11,15,02,30,8.60
2010,11,15,02,31,8.10
2010,11,15,02,32,8.20
2010,11,15,02,33,10.10
2010,11,15,02,34,10.10
2010,11,15,02,35,6.00
2010,11,15,02,36,9.20
2010,11,15,02,37,11.30
2010,11,15,02,38,8.20
2010,11,15,02,39,5.00
2010,11,15,02,40,6.80
2010,11,15,02,41,11.20
2010,11,15,02,42,7.70
2010,11,15,02,43,6.40
2010,11,15,02,44,7.60
2010,11,15,02,45,9.10
2010,11,15,02,46,5.40
2010,11,15,02,47,6.00
2010,11,15,02,48,6.10
2010,11,15,02,49,4.70
2010,11,15,02,50,7.40
2010,11,15,02,51,7.70
2010,11,15,02,52,5.20
2010,11,15,02,53,1.00
2010,11,15,02,54,3.10
2010,11,15,02,55,5.60
2010,11,15,02,56,4.70
2010,11,15,02,57,6.50
2010,11,15,02,58,7.80
2010,11,15,02,59,5.20
2010,11,15,03,00,6.50
2010,11,15,03,01,9.60
2010,11,15,03,02,11.80
2010,11,15,03,03,5.10
2010,11,15,03,04,10.80
2010,11,15,03,05,8.20
2010,11,15,03,06,8.20
2010,11,15,03,07,6.60
2010,11,15,03,08,10.60
2010,11,15,03,09,14.10
2010,11,15,03,10,15.70
2010,11,15,03,11,15.00
2010,11,15,03,12,14.40
2010,11,15,03,13,14.30
2010,11,15,03,14,17.00
2010,11,15,03,15,18.30
2010,11,15,03,16,17.70
2010,11,15,03,17,14.60
2010,11,15,03,18,16.40
2010,11,15,03,19,15.90
2010,11,15,03,20,17.10
2010,11,15,03,21,17.70
2010,11,15,03,22,14.50
2010,11,15,03,23,10.10
2010,11,15,03,24,13.50
2010,11,15,03,25,11.10
2010,11,15,03,26,15.50
2010,11,15,03,27,14.90
2010,11,15,03,28,15.60
2010,11,15,03,29,16.50
2010,11,15,03,30,11.90
2010,11,15,03,31,14.60
2010,11,15,03,32,11.10
2010,11,15,03,33,14.10
2010,11,15,03,34,16.70
2010,11,15,03,35,10.90
2010,11,15,03,36,13.00
2010,11,15,03,37,12.50
2010,11,15,03,38,11.70
2010,11,15,03,39,14.00
2010,11,15,03,40,16.30
2010,11,15,03,41,10.60
2010,11,15,03,42,12.80
2010,11,15,03,43,13.00
2010,11,15,03,44,8.50
2010,11,15,03,45,10.80
2010,11,15,03,46,9.30
2010,11,15,03,47,11.80
2010,11,15,03,48,11.90
2010,11,15,03,49,12.20
2010,11,15,03,50,13.00
2010,11,15,03,51,12.70
2010,11,15,03,52,12.90
2010,11,15,03,53,15.10
2010,11,15,03,54,14.30
2010,11,15,03,55,12.70
2010,11,15,03,56,10.90
2010,11,15,03,57,11.30
2010,11,15,03,58,13.60
2010,11,15,03,59,12.40
2010,11,15,04,00,15.40
2010,11,15,04,01,8.40
2010,11,15,04,02,9.80
2010,11,15,04,03,15.30
2010,11,15,04,04,12.30
2010,11,15,04,05,13.00
2010,11,15,04,06,14.20
2010,11,15,04,07,9.60
2010,11,15,04,08,11.70
2010,11,15,04,09,12.60
2010,11,15,04,10,9.10
2010,11,15,04,11,9.60
2010,11,15,04,12,9.10
2010,11,15,04,13,9.30
2010,11,15,04,14,13.90
2010,11,15,04,15,13.10
2010,11,15,04,16,11.10
2010,11,15,04,17,14.40
2010,11,15,04,18,15.10
2010,11,15,04,19,15.90
2010,11,15,04,20,11.40
2010,11,15,04,21,14.00
2010,11,15,04,22,15.10
2010,11,15,04,23,12.20
2010,11,15,04,24,9.00
2010,11,15,04,25,9.60
2010,11,15,04,26,7.80
2010,11,15,04,27,9.70
2010,11,15,04,28,10.30
2010,11,15,04,29,13.50
2010,11,15,04,30,12.50
2010,11,15,04,31,14.30
2010,11,15,04,32,10.10
2010,11,15,04,33,16.80
2010,11,15,04,34,13.80
2010,11,15,04,35,12.70
2010,11,15,04,36,13.40
2010,11,15,04,37,12.40
2010,11,15,04,38,8.40
2010,11,15,04,39,9.50
2010,11,15,04,40,15.10
2010,11,15,04,41,9.90
2010,11,15,04,42,9.80
2010,11,15,04,43,10.60
2010,11,15,04,44,11.20
2010,11,15,04,45,14.00
2010,11,15,04,46,13.00
2010,11,15,04,47,13.00
2010,11,15,04,48,13.30
2010,11,15,04,49,12.10
2010,11,15,04,50,11.20
2010,11,15,04,51,12.20
2010,11,15,04,52,9.80
2010,11,15,04,53,8.60
2010,11,15,04,54,6.00
2010,11,15,04,55,7.00
2010,11,15,04,56,10.30
2010,11,15,04,57,7.30
2010,11,15,04,58,12.00
2010,11,15,04,59,9.00
2010,11,15,05,00,11.70
2010,11,15,05,01,10.00
2010,11,15,05,02,10.90
2010,11,15,05,03,11.40
2010,11,15,05,04,7.00
2010,11,15,05,05,8.70
2010,11,15,05,06,6.00
2010,11,15,05,07,9.30
2010,11,15,05,08,8.10
2010,11,15,05,09,8.80
2010,11,15,05,10,5.90
2010,11,15,05,11,5.90
2010,11,15,05,12,6.30
2010,11,15,05,13,6.40
2010,11,15,05,14,5.90
2010,11,15,05,15,7.40
2010,11,15,05,16,7.10
2010,11,15,05,17,7.70
2010,11,15,05,18,5.60
2010,11,15,05,19,3.90
2010,11,15,05,20,7.10
2010,11,15,05,21,7.20
2010,11,15,05,22,6.30
2010,11,15,05,23,7.10
2010,11,15,05,24,8.70
2010,11,15,05,25,5.80
2010,11,15,05,26,7.20
2010,11,15,05,27,10.70
2010,11,15,05,28,8.20
2010,11,15,05,29,8.00
2010,11,15,05,30,9.70
2010,11,15,05,31,8.30
2010,11,15,05,32,10.70
2010,11,15,05,33,13.20
2010,11,15,05,34,10.50
2010,11,15,05,35,12.30
2010,11,15,05,36,15.90
2010,11,15,05,37,13.10
2010,11,15,05,38,10.70
2010,11,15,05,39,9.90
2010,11,15,05,40,10.00
2010,11,15,05,41,11.10
2010,11,15,05,42,11.70
2010,11,15,05,43,12.40
2010,11,15,05,44,10.20
2010,11,15,05,45,9.00
2010,11,15,05,46,8.60
2010,11,15,05,47,6.90
2010,11,15,05,48,8.40
2010,11,15,05,49,8.50
2010,11,15,05,50,7.60
2010,11,15,05,51,7.60
2010,11,15,05,52,6.90
2010,11,15,05,53,7.30
2010,11,15,05,54,8.30
2010,11,15,05,55,10.10
2010,11,15,05,56,9.90
2010,11,15,05,57,6.80
2010,11,15,05,58,6.60
2010,11,15,05,59,7.60
2010,11,15,06,00,5.60
2010,11,15,06,01,6.00
2010,11,15,06,02,6.70
2010,11,15,06,03,7.30
2010,11,15,06,04,3.90
2010,11,15,06,05,6.60
2010,11,15,06,06,6.20
2010,11,15,06,07,9.80
2010,11,15,06,08,6.90
2010,11,15,06,09,5.20
2010,11,15,06,10,7.60
2010,11,15,06,11,8.90
2010,11,15,06,12,4.40
2010,11,15,06,13,3.80
2010,11,15,06,14,6.40
2010,11,15,06,15,8.80
2010,11,15,06,16,4.80
2010,11,15,06,17,6.00
2010,11,15,06,18,6.30
2010,11,15,06,19,3.90
2010,11,15,06,20,6.80
2010,11,15,06,21,5.00
2010,11,15,06,22,7.70
2010,11,15,06,23,6.50
2010,11,15,06,24,6.60
2010,11,15,06,25,6.10
2010,11,15,06,26,7.20
2010,11,15,06,27,6.40
2010,11,15,06,28,14.10
2010,11,15,06,29,9.70
2010,11,15,06,30,5.90
2010,11,15,06,31,6.60
2010,11,15,06,32,6.00
2010,11,15,06,33,6.50
2010,11,15,06,34,6.20
2010,11,15,06,35,7.20
2010,11,15,06,36,8.70
2010,11,15,06,37,9.80
2010,11,15,06,38,11.00
2010,11,15,06,39,12.00
2010,11,15,06,40,14.40
2010,11,15,06,41,9.70
2010,11,15,06,42,11.70
2010,11,15,06,43,9.20
2010,11,15,06,44,7.80
2010,11,15,06,45,6.30
2010,11,15,06,46,10.40
2010,11,15,06,47,7.80
2010,11,15,06,48,9.70
2010,11,15,06,49,7.70
2010,11,15,06,50,6.00
2010,11,15,06,51,13.80
2010,11,15,06,52,12.00
2010,11,15,06,53,9.00
2010,11,15,06,54,10.80
2010,11,15,06,55,11.70
2010,11,15,06,56,11.80
2010,11,15,06,57,13.40
2010,11,15,06,58,15.60
2010,11,15,06,59,16.50
2010,11,15,07,00,16.00
2010,11,15,07,01,17.00
2010,11,15,07,02,13.70
2010,11,15,07,03,14.50
2010,11,15,07,04,18.10
2010,11,15,07,05,14.50
2010,11,15,07,06,12.70
2010,11,15,07,07,10.90
2010,11,15,07,08,12.10
2010,11,15,07,09,14.20
2010,11,15,07,10,13.50
2010,11,15,07,11,10.80
2010,11,15,07,12,15.60
2010,11,15,07,13,15.10
2010,11,15,07,14,13.10
2010,11,15,07,15,15.60
2010,11,15,07,16,13.50
2010,11,15,07,17,12.40
2010,11,15,07,18,14.30
2010,11,15,07,19,10.00
2010,11,15,07,20,9.80
2010,11,15,07,21,8.00
2010,11,15,07,22,9.60
2010,11,15,07,23,10.10
2010,11,15,07,24,8.90
2010,11,15,07,25,9.30
2010,11,15,07,26,9.70
2010,11,15,07,27,6.40
2010,11,15,07,28,7.30
2010,11,15,07,29,10.00
2010,11,15,07,30,7.20
2010,11,15,07,31,6.10
2010,11,15,07,32,4.70
2010,11,15,07,33,4.00
2010,11,15,07,34,3.50
2010,11,15,07,35,4.30
2010,11,15,07,36,4.30
2010,11,15,07,37,3.90
2010,11,15,07,38,6.70
2010,11,15,07,39,7.20
2010,11,15,07,40,8.00
2010,11,15,07,41,7.60
2010,11,15,07,42,6.00
2010,11,15,07,43,3.10
2010,11,15,07,44,6.20
2010,11,15,07,45,7.50
2010,11,15,07,46,5.80
2010,11,15,07,47,3.60
2010,11,15,07,48,4.20
2010,11,15,07,49,4.30
2010,11,15,07,50,6.00
2010,11,15,07,51,6.50
2010,11,15,07,52,4.50
2010,11,15,07,53,3.90
2010,11,15,07,54,5.80
2010,11,15,07,55,6.60
2010,11,15,07,56,8.00
2010,11,15,07,57,6.70
2010,11,15,07,58,7.90
2010,11,15,07,59,6.80
2010,11,15,08,00,8.50
2010,11,15,08,01,8.90
2010,11,15,08,02,7.40
2010,11,15,08,03,8.10
2010,11,15,08,04,6.80
2010,11,15,08,05,7.20
2010,11,15,08,06,5.10
2010,11,15,08,07,6.50
2010,11,15,08,08,7.20
2010,11,15,08,09,7.90
2010,11,15,08,10,7.30
2010,11,15,08,11,7.70
2010,11,15,08,12,7.50
2010,11,15,08,13,6.80
2010,11,15,08,14,7.60
2010,11,15,08,15,6.70
2010,11,15,08,16,7.70
2010,11,15,08,17,8.50
2010,11,15,08,18,8.10
2010,11,15,08,19,6.40
2010,11,15,08,20,6.60
2010,11,15,08,21,6.80
2010,11,15,08,22,8.20
2010,11,15,08,23,7.10
2010,11,15,08,24,4.50
2010,11,15,08,25,2.10
2010,11,15,08,26,5.70
2010,11,15,08,27,6.00
2010,11,15,08,28,4.30
2010,11,15,08,29,6.00
2010,11,15,08,30,7.10
2010,11,15,08,31,3.60
2010,11,15,08,32,4.00
2010,11,15,08,33,5.10
2010,11,15,08,34,5.10
2010,11,15,08,35,6.40
2010,11,15,08,36,6.60
2010,11,15,08,37,7.20
2010,11,15,08,38,6.10
2010,11,15,08,39,7.80
2010,11,15,08,40,9.80
2010,11,15,08,41,9.70
2010,11,15,08,42,8.10
2010,11,15,08,43,7.70
2010,11,15,08,44,10.90
2010,11,15,08,45,8.70
2010,11,15,08,46,6.40
2010,11,15,08,47,8.10
2010,11,15,08,48,6.90
2010,11,15,08,49,6.10
2010,11,15,08,50,8.70
2010,11,15,08,51,8.40
2010,11,15,08,52,9.50
2010,11,15,08,53,9.40
2010,11,15,08,54,8.40
2010,11,15,08,55,6.70
2010,11,15,08,56,7.80
2010,11,15,08,57,12.30
2010,11,15,08,58,8.40
2010,11,15,08,59,6.70
2010,11,15,09,00,11.50
2010,11,15,09,01,10.40
2010,11,15,09,02,10.00
2010,11,15,09,03,7.80
2010,11,15,09,04,8.60
2010,11,15,09,05,8.90
2010,11,15,09,06,8.50
2010,11,15,09,07,6.80
2010,11,15,09,08,6.80
2010,11,15,09,09,9.30
2010,11,15,09,10,7.50
2010,11,15,09,11,8.20
2010,11,15,09,12,4.70
2010,11,15,09,13,8.30
2010,11,15,09,14,3.40
2010,11,15,09,15,4.80
2010,11,15,09,16,3.90
2010,11,15,09,17,7.00
2010,11,15,09,18,5.30
2010,11,15,09,19,7.20
2010,11,15,09,20,5.20
2010,11,15,09,21,2.70
2010,11,15,09,22,2.70
2010,11,15,09,23,1.00
2010,11,15,09,24,5.30
2010,11,15,09,25,7.20
2010,11,15,09,26,3.70
2010,11,15,09,27,2.90
2010,11,15,09,28,2.10
2010,11,15,09,29,3.10
2010,11,15,09,30,5.60
2010,11,15,09,31,5.30
2010,11,15,09,32,3.00
2010,11,15,09,33,6.10
2010,11,15,09,34,7.00
2010,11,15,09,35,7.00
2010,11,15,09,36,4.80
2010,11,15,09,37,7.70
2010,11,15,09,38,8.20
2010,11,15,09,39,9.10
2010,11,15,09,40,6.40
2010,11,15,09,41,5.60
2010,11,15,09,42,2.70
2010,11,15,09,43,4.00
2010,11,15,09,44,6.70
2010,11,15,09,45,5.40
2010,11,15,09,46,5.00
2010,11,15,09,47,6.20
2010,11,15,09,48,8.40
2010,11,15,09,49,6.00
2010,11,15,09,50,5.90
2010,11,15,09,51,5.70
2010,11,15,09,52,6.80
2010,11,15,09,53,4.90
2010,11,15,09,54,5.20
2010,11,15,09,55,7.80
2010,11,15,09,56,5.10
2010,11,15,09,57,5.40
2010,11,15,09,58,4.50
2010,11,15,09,59,6.10
2010,11,15,10,00,5.20
2010,11,15,10,01,8.70
2010,11,15,10,02,6.60
2010,11,15,10,03,8.00
2010,11,15,10,04,9.70
2010,11,15,10,05,7.80
2010,11,15,10,06,9.40
2010,11,15,10,07,7.80
2010,11,15,10,08,7.40
2010,11,15,10,09,9.20
2010,11,15,10,10,9.10
2010,11,15,10,11,7.50
2010,11,15,10,12,7.20
2010,11,15,10,13,9.30
2010,11,15,10,14,8.60
2010,11,15,10,15,9.10
2010,11,15,10,16,8.40
2010,11,15,10,17,9.50
2010,11,15,10,18,6.80
2010,11,15,10,19,7.40
2010,11,15,10,20,6.70
2010,11,15,10,21,7.20
2010,11,15,10,22,8.00
2010,11,15,10,23,8.30
2010,11,15,10,24,7.10
2010,11,15,10,25,10.60
2010,11,15,10,26,10.10
2010,11,15,10,27,9.60
2010,11,15,10,28,11.30
2010,11,15,10,29,7.20
2010,11,15,10,30,7.50
2010,11,15,10,31,8.80
2010,11,15,10,32,7.20
2010,11,15,10,33,8.10
2010,11,15,10,34,11.30
2010,11,15,10,35,6.10
2010,11,15,10,36,9.50
2010,11,15,10,37,8.50
2010,11,15,10,38,10.00
2010,11,15,10,39,7.60
2010,11,15,10,40,9.60
2010,11,15,10,41,10.90
2010,11,15,10,42,7.20
2010,11,15,10,43,13.30
2010,11,15,10,44,11.30
2010,11,15,10,45,9.00
2010,11,15,10,46,8.80
2010,11,15,10,47,10.10
2010,11,15,10,48,10.70
2010,11,15,10,49,9.70
2010,11,15,10,50,9.50
2010,11,15,10,51,9.20
2010,11,15,10,52,9.70
2010,11,15,10,53,6.20
2010,11,15,10,54,7.60
2010,11,15,10,55,7.10
2010,11,15,10,56,11.10
2010,11,15,10,57,8.80
2010,11,15,10,58,8.70
2010,11,15,10,59,12.90
2010,11,15,11,00,11.30
2010,11,15,11,01,11.30
2010,11,15,11,02,11.00
2010,11,15,11,03,7.10
2010,11,15,11,04,13.20
2010,11,15,11,05,12.30
2010,11,15,11,06,8.00
2010,11,15,11,07,10.50
2010,11,15,11,08,12.00
2010,11,15,11,09,10.80
2010,11,15,11,10,7.90
2010,11,15,11,11,7.80
2010,11,15,11,12,8.80
2010,11,15,11,13,9.50
2010,11,15,11,14,5.50
2010,11,15,11,15,5.40
2010,11,15,11,16,4.00
2010,11,15,11,17,5.30
2010,11,15,11,18,3.50
2010,11,15,11,19,5.90
2010,11,15,11,20,8.60
2010,11,15,11,21,10.20
2010,11,15,11,22,7.80
2010,11,15,11,23,8.50
2010,11,15,11,24,9.70
2010,11,15,11,25,7.70
2010,11,15,11,26,5.20
2010,11,15,11,27,8.30
2010,11,15,11,28,8.00
2010,11,15,11,29,5.70
2010,11,15,11,30,4.70
2010,11,15,11,31,5.70
2010,11,15,11,32,6.60
2010,11,15,11,33,7.70
2010,11,15,11,34,5.60
2010,11,15,11,35,3.20
2010,11,15,11,36,5.50
2010,11,15,11,37,6.20
2010,11,15,11,38,4.70
2010,11,15,11,39,9.30
2010,11,15,11,40,5.90
2010,11,15,11,41,3.80
2010,11,15,11,42,5.00
2010,11,15,11,43,4.00
2010,11,15,11,44,6.20
2010,11,15,11,45,9.40
2010,11,15,11,46,7.70
2010,11,15,11,47,10.20
2010,11,15,11,48,8.50
2010,11,15,11,49,7.90
2010,11,15,11,50,7.60
2010,11,15,11,51,7.20
2010,11,15,11,52,6.80
2010,11,15,11,53,5.60
2010,11,15,11,54,4.90
2010,11,15,11,55,6.00
2010,11,15,11,56,4.00
2010,11,15,11,57,12.10
2010,11,15,11,58,8.00
2010,11,15,11,59,6.60
2010,11,15,12,00,8.40
2010,11,15,12,01,8.30
2010,11,15,12,02,7.20
2010,11,15,12,03,8.60
2010,11,15,12,04,8.20
2010,11,15,12,05,6.80
2010,11,15,12,06,7.60
2010,11,15,12,07,7.90
2010,11,15,12,08,8.90
2010,11,15,12,09,8.90
2010,11,15,12,10,8.90
2010,11,15,12,11,10.60
2010,11,15,12,12,13.60
2010,11,15,12,13,9.50
2010,11,15,12,14,8.80
2010,11,15,12,15,7.70
2010,11,15,12,16,6.70
2010,11,15,12,17,6.60
2010,11,15,12,18,7.70
2010,11,15,12,19,6.70
2010,11,15,12,20,10.50
2010,11,15,12,21,6.70
2010,11,15,12,22,11.00
2010,11,15,12,23,11.40
2010,11,15,12,24,8.50
2010,11,15,12,25,11.60
2010,11,15,12,26,15.40
2010,11,15,12,27,12.70
2010,11,15,12,28,12.30
2010,11,15,12,29,13.70
2010,11,15,12,30,11.70
2010,11,15,12,31,11.20
2010,11,15,12,32,9.50
2010,11,15,12,33,11.30
2010,11,15,12,34,9.70
2010,11,15,12,35,9.80
2010,11,15,12,36,11.50
2010,11,15,12,37,12.50
2010,11,15,12,38,7.40
2010,11,15,12,39,8.50
2010,11,15,12,40,9.30
2010,11,15,12,41,5.40
2010,11,15,12,42,5.70
2010,11,15,12,43,8.10
2010,11,15,12,44,4.00
2010,11,15,12,45,7.50
2010,11,15,12,46,7.60
2010,11,15,12,47,8.30
2010,11,15,12,48,7.90
2010,11,15,12,49,6.80
2010,11,15,12,50,5.60
2010,11,15,12,51,9.70
2010,11,15,12,52,3.90
2010,11,15,12,53,2.50
2010,11,15,12,54,2.90
2010,11,15,12,55,3.90
2010,11,15,12,56,2.40
2010,11,15,12,57,5.30
2010,11,15,12,58,4.70
2010,11,15,12,59,5.20
2010,11,15,13,00,4.70
2010,11,15,13,01,5.10
2010,11,15,13,02,6.90
2010,11,15,13,03,5.20
2010,11,15,13,04,5.10
2010,11,15,13,05,2.60
2010,11,15,13,06,3.60
2010,11,15,13,07,4.60
2010,11,15,13,08,6.50
2010,11,15,13,09,5.20
2010,11,15,13,10,8.30
2010,11,15,13,11,6.90
2010,11,15,13,12,7.40
2010,11,15,13,13,9.70
2010,11,15,13,14,6.40
2010,11,15,13,15,8.40
2010,11,15,13,16,7.60
2010,11,15,13,17,7.00
2010,11,15,13,18,6.20
2010,11,15,13,19,6.00
2010,11,15,13,20,7.60
2010,11,15,13,21,8.50
2010,11,15,13,22,9.40
2010,11,15,13,23,5.80
2010,11,15,13,24,6.40
2010,11,15,13,25,8.30
2010,11,15,13,26,9.30
2010,11,15,13,27,9.00
2010,11,15,13,28,8.70
2010,11,15,13,29,8.00
2010,11,15,13,30,7.00
2010,11,15,13,31,8.70
2010,11,15,13,32,7.70
2010,11,15,13,33,6.30
2010,11,15,13,34,7.10
2010,11,15,13,35,7.50
2010,11,15,13,36,8.60
2010,11,15,13,37,8.90
2010,11,15,13,38,7.40
2010,11,15,13,39,7.20
2010,11,15,13,40,9.70
2010,11,15,13,41,8.00
2010,11,15,13,42,4.40
2010,11,15,13,43,10.90
2010,11,15,13,44,9.30
2010,11,15,13,45,6.20
2010,11,15,13,46,5.90
2010,11,15,13,47,7.20
2010,11,15,13,48,6.40
2010,11,15,13,49,9.10
2010,11,15,13,50,7.30
2010,11,15,13,51,7.00
2010,11,15,13,52,10.50
2010,11,15,13,53,10.50
2010,11,15,13,54,8.40
2010,11,15,13,55,9.30
2010,11,15,13,56,9.50
2010,11,15,13,57,8.70
2010,11,15,13,58,7.90
2010,11,15,13,59,5.40
2010,11,15,14,00,9.90
2010,11,15,14,01,8.00
2010,11,15,14,02,11.20
2010,11,15,14,03,7.50
2010,11,15,14,04,6.00
2010,11,15,14,05,8.90
2010,11,15,14,06,9.00
2010,11,15,14,07,5.60
2010,11,15,14,08,9.30
2010,11,15,14,09,6.40
2010,11,15,14,10,8.20
2010,11,15,14,11,5.90
2010,11,15,14,12,5.10
2010,11,15,14,13,7.30
2010,11,15,14,14,9.50
2010,11,15,14,15,9.80
2010,11,15,14,16,7.90
2010,11,15,14,17,9.40
2010,11,15,14,18,10.60
2010,11,15,14,19,10.00
2010,11,15,14,20,10.50
2010,11,15,14,21,8.50
2010,11,15,14,22,10.10
2010,11,15,14,23,7.20
2010,11,15,14,24,9.30
2010,11,15,14,25,4.60
2010,11,15,14,26,8.90
2010,11,15,14,27,7.00
2010,11,15,14,28,6.20
2010,11,15,14,29,5.60
2010,11,15,14,30,8.30
2010,11,15,14,31,5.20
2010,11,15,14,32,8.70
2010,11,15,14,33,5.10
2010,11,15,14,34,9.30
2010,11,15,14,35,5.60
2010,11,15,14,36,4.80
2010,11,15,14,37,4.30
2010,11,15,14,38,4.30
2010,11,15,14,39,3.50
2010,11,15,14,40,2.40
2010,11,15,14,41,1.70
2010,11,15,14,42,9.40
2010,11,15,14,43,8.90
2010,11,15,14,44,9.90
2010,11,15,14,45,12.20
2010,11,15,14,46,9.50
2010,11,15,14,47,9.20
2010,11,15,14,48,8.10
2010,11,15,14,49,6.60
2010,11,15,14,50,9.70
2010,11,15,14,51,7.70
2010,11,15,14,52,6.30
2010,11,15,14,53,5.90
2010,11,15,14,54,5.60
2010,11,15,14,55,7.40
2010,11,15,14,56,7.70
2010,11,15,14,57,7.70
2010,11,15,14,58,9.10
2010,11,15,14,59,6.00
2010,11,15,15,00,5.60
2010,11,15,15,01,7.30
2010,11,15,15,02,6.10
2010,11,15,15,03,4.00
2010,11,15,15,04,5.80
2010,11,15,15,05,6.20
2010,11,15,15,06,3.50
2010,11,15,15,07,7.00
2010,11,15,15,08,5.90
2010,11,15,15,09,4.50
2010,11,15,15,10,3.80
2010,11,15,15,11,5.80
2010,11,15,15,12,5.80
2010,11,15,15,13,5.00
2010,11,15,15,14,7.60
2010,11,15,15,15,7.60
2010,11,15,15,16,6.80
2010,11,15,15,17,6.70
2010,11,15,15,18,9.60
2010,11,15,15,19,8.60
2010,11,15,15,20,9.00
2010,11,15,15,21,8.30
2010,11,15,15,22,9.70
2010,11,15,15,23,9.60
2010,11,15,15,24,11.00
2010,11,15,15,25,7.60
2010,11,15,15,26,6.50
2010,11,15,15,27,7.70
2010,11,15,15,28,7.00
2010,11,15,15,29,7.70
2010,11,15,15,30,12.20
2010,11,15,15,31,7.80
2010,11,15,15,32,7.80
2010,11,15,15,33,5.80
2010,11,15,15,34,11.30
2010,11,15,15,35,7.50
2010,11,15,15,36,8.10
2010,11,15,15,37,12.20
2010,11,15,15,38,13.60
2010,11,15,15,39,8.20
2010,11,15,15,40,13.90
2010,11,15,15,41,13.70
2010,11,15,15,42,10.60
2010,11,15,15,43,8.10
2010,11,15,15,44,7.00
2010,11,15,15,45,10.90
2010,11,15,15,46,12.10
2010,11,15,15,47,16.90
2010,11,15,15,48,10.20
2010,11,15,15,49,7.90
2010,11,15,15,50,20.40
2010,11,15,15,51,13.20
2010,11,15,15,52,11.10
2010,11,15,15,53,23.40
2010,11,15,15,54,20.40
2010,11,15,15,55,14.20
2010,11,15,15,56,19.20
2010,11,15,15,57,15.30
2010,11,15,15,58,18.00
2010,11,15,15,59,16.90
2010,11,15,16,00,15.30
2010,11,15,16,01,22.90
2010,11,15,16,02,12.10
2010,11,15,16,03,13.40
2010,11,15,16,04,12.60
2010,11,15,16,05,9.70
2010,11,15,16,06,15.90
2010,11,15,16,07,14.60
2010,11,15,16,08,33.80
2010,11,15,16,09,25.30
2010,11,15,16,10,31.50
2010,11,15,16,11,27.50
2010,11,15,16,12,25.00
2010,11,15,16,13,23.90
2010,11,15,16,14,23.90
2010,11,15,16,15,21.90
2010,11,15,16,16,20.50
2010,11,15,16,17,20.00
2010,11,15,16,18,13.90
2010,11,15,16,19,20.80
2010,11,15,16,20,24.60
2010,11,15,16,21,23.40
2010,11,15,16,22,22.80
2010,11,15,16,23,21.80
2010,11,15,16,24,25.20
2010,11,15,16,25,19.90
2010,11,15,16,26,16.70
2010,11,15,16,27,17.70
2010,11,15,16,28,21.20
2010,11,15,16,29,24.80
2010,11,15,16,30,21.80
2010,11,15,16,31,28.90
2010,11,15,16,32,27.40
2010,11,15,16,33,20.00
2010,11,15,16,34,25.00
2010,11,15,16,35,22.40
2010,11,15,16,36,28.40
2010,11,15,16,37,27.10
2010,11,15,16,38,19.50
2010,11,15,16,39,25.10
2010,11,15,16,40,33.60
2010,11,15,16,41,33.80
2010,11,15,16,42,29.90
2010,11,15,16,43,22.50
2010,11,15,16,44,31.10
2010,11,15,16,45,21.50
2010,11,15,16,46,23.30
2010,11,15,16,47,24.90
2010,11,15,16,48,24.90
2010,11,15,16,49,31.70
2010,11,15,16,50,27.30
2010,11,15,16,51,20.10
2010,11,15,16,52,20.10
2010,11,15,16,53,22.50
2010,11,15,16,54,22.90
2010,11,15,16,55,25.30
2010,11,15,16,56,18.90
2010,11,15,16,57,15.80
2010,11,15,16,58,21.90
2010,11,15,16,59,22.70
2010,11,15,17,00,18.70
2010,11,15,17,01,14.40
2010,11,15,17,02,14.40
2010,11,15,17,03,20.00
2010,11,15,17,04,20.70
2010,11,15,17,05,18.10
2010,11,15,17,06,24.90
2010,11,15,17,07,20.40
2010,11,15,17,08,26.00
2010,11,15,17,09,24.50
2010,11,15,17,10,24.90
2010,11,15,17,11,22.50
2010,11,15,17,12,30.10
2010,11,15,17,13,27.40
2010,11,15,17,14,19.30
2010,11,15,17,15,19.90
2010,11,15,17,16,25.00
2010,11,15,17,17,25.50
2010,11,15,17,18,17.90
2010,11,15,17,19,17.40
2010,11,15,17,20,19.90
2010,11,15,17,21,25.10
2010,11,15,17,22,20.60
2010,11,15,17,23,18.20
2010,11,15,17,24,14.00
2010,11,15,17,25,30.50
2010,11,15,17,26,19.20
2010,11,15,17,27,20.60
2010,11,15,17,28,24.20
2010,11,15,17,29,28.80
2010,11,15,17,30,26.30
2010,11,15,17,31,29.00
2010,11,15,17,32,22.40
2010,11,15,17,33,27.70
2010,11,15,17,34,25.90
2010,11,15,17,35,27.40
2010,11,15,17,36,29.40
2010,11,15,17,37,22.70
2010,11,15,17,38,21.60
2010,11,15,17,39,14.10
2010,11,15,17,40,26.80
2010,11,15,17,41,22.80
2010,11,15,17,42,25.20
2010,11,15,17,43,23.90
2010,11,15,17,44,26.40
2010,11,15,17,45,27.90
2010,11,15,17,46,24.50
2010,11,15,17,47,20.70
2010,11,15,17,48,29.80
2010,11,15,17,49,26.00
2010,11,15,17,50,20.80